User: anonymous   Login
Location: Unspecified
(0.0000°N, 0.0000°E)
Time: 15:00:51
(UTC+00:00)
Language:

deb r/b Ablestar - Orbit

View from above orbital plane
View from above orbital plane
View from above satellite
View from above satellite

Ground track
Ground track

The orbit data is extracted from the following two-line orbital elements,

1 00335U 61015DM  17018.05760158  .00000384  00000-0  23100-3 0  9997
2 00335  66.8415 261.3024 0041125 198.6106 161.3485 14.16669188840229
Epoch (UTC): 18 January 2017 01:22:56
Eccentricity: 0.0041125
inclination: 66.8415°
perigee height: 807 km
apogee height: 866 km
right ascension of ascending node: 261.3024°
argument of perigee: 198.6106°
revolutions per day: 14.16669188
mean anomaly at epoch: 161.3485°
orbit number at epoch: 84022

The dashed part of the orbit path shows where the satellite is in the earth's shadow,  

DLR